Location: Banios
(43.0451°N, 0.2335°E)
Time: 20:38:58
(UTC+00:00)

Cosmos 2034 Rocket - Pass Details

Date: 25 January 2021
Orbit: 957 x 1001 km, 82.9° (Epoch: 01 March)

Event Time Altitude Azimuth Distance (km) Brightness Sun altitude
Rises 05:39:13 0° 203° (SSW) 3,711 6.9 -18.5°
Reaches altitude 10° 05:41:50 10° 209° (SSW) 2,766 6.2 -18.1°
Maximum altitude 05:47:58 49° 283° (WNW) 1,272 4.2 -17.0°
Drops below altitude 10° 05:54:08 10° 358° (N) 2,771 6.2 -15.9°
Sets 05:56:46 0° 3° (N) 3,719 7.0 -15.4°
